Regional Weather Roundup
Issued by NWS

Home | Current Version | Previous Version | Text Only | Print | Product List | Glossary Off
Versions: 1 2 3 4 5 6 7 8 9 10 11 12 13 14 15 16 17 18 19 20 21 22 23 24 25 26 27 28 29 30 31 32 33 34 35 36 37 38 39 40 41 42 43 44 45 46 47 48 49 50

000
ASUS43 KTOP 201659
RWRKS

WEATHER ROUNDUP FOR KANSAS
NATIONAL WEATHER SERVICE GOODLAND KS
1200 PM CDT MON OCT 20 2014

NOTE:  "FAIR" INDICATES FEW OR NO CLOUDS BELOW 12,000 FEET WITH NO
SIGNIFICANT WEATHER AND/OR OBSTRUCTIONS TO VISIBILITY.

KSZ001>006-013>018-027>032-041>047-201800-
NORTHWEST KANSAS

CITY           SKY/WX    TMP DP  RH WIND       PRES   REMARKS
GOODLAND       SUNNY     69  45  41 S10       30.18S
HAYS           SUNNY     70  52  52 E6        30.13S
HILL CITY      SUNNY     70  50  49 E3        30.14S
RUSSELL        SUNNY     70  51  51 NE8       30.11S
$$

KSZ061>065-074>080-084>089-201800-
SOUTHWEST KANSAS

CITY           SKY/WX    TMP DP  RH WIND       PRES   REMARKS
DODGE CITY     SUNNY     67  54  63 NE12      30.14S
ELKHART          N/A     66  51  58 NE12        N/A
GARDEN CITY    SUNNY     68  52  56 E13G20    30.14S
GREAT BEND     SUNNY     70  54  56 E5        30.11F
LIBERAL        SUNNY     68  55  64 NE10      30.15S
$$

KSZ066>073-081>083-090>101-201800-
SOUTHEAST KANSAS

CITY           SKY/WX    TMP DP  RH WIND       PRES   REMARKS
CHANUTE        SUNNY     70  58  65 NW6       30.07S
COFFEYVILLE    SUNNY     69  57  65 W6        30.07S
HUTCHINSON     SUNNY     74  55  51 NE8       30.09S
NEWTON         SUNNY     72  54  53 NE8       30.11R
PARSONS        SUNNY     70  58  65 VRB3      30.08F
WICHITA INTL   SUNNY     73  56  54 NE8       30.08S
WICHITA JABRA  SUNNY     71  57  61 NE8       30.08S
WINFIELD       SUNNY     72  60  66 VRB7      30.08S
$$

KSZ007>012-019>026-033>040-048>060-102>105-201800-
NORTHEAST KANSAS

CITY           SKY/WX    TMP DP  RH WIND       PRES   REMARKS
CONCORDIA      SUNNY     67  50  54 NE7       30.11S
EMPORIA        SUNNY     71  56  58 VRB7      30.07S
LAWRENCE       SUNNY     67  51  56 VRB3      30.08R
MANHATTAN      SUNNY     68  53  58 NE6       30.09S
OLATHE IND     SUNNY     66  54  65 N10       30.08R
OLATHE EXE     SUNNY     67  53  61 N10       30.06S
SALINA         SUNNY     69  55  60 N5        30.11R
TOPEKA BILLARD SUNNY     68  53  58 NE5       30.08S
TOPEKA FORBES  SUNNY     67  53  61 N9        30.08S
$$



USA.gov is the U.S. government's official web portal to all federal, state and local government web resources and services.